Voltar ao catálogo

STARLINK-37602

AtivoComunicaçõesVLEO
NORAD 69358·PAYLOAD·🇺🇸 United States

Lançado Jun 4, 2026 de Cape Canaveral Space Force Station

Loading…

Próximas Passagens (próximas 24 horas)

TLE

AtualizadoSource: CelesTrak SupGP

Época: Sep 14, 2026, 21:29 UTC

1 69358C 26123F   26257.89562500 -.00036522  00000+0 -10788-2 0  2574
2 69358  53.1592 168.2058 0001292  82.7461 359.0308 15.34416714    15

Acompanhe STARLINK-37602 em tempo real com AllMySat

Download on the App Store